Location: Coupvray
(48.8929°N, 2.7967°E)
Time: 23:01:37
(UTC+00:00)

Cosmos 1241 Rocket - Pass Details

Date: 03 November 2020
Orbit: 929 x 1018 km, 65.8° (Epoch: 28 November)

Event Time Altitude Azimuth Distance (km) Brightness Sun altitude
Rises 20:00:44 0° 310° (NW) 3,718 8.4 -35.6°
Reaches altitude 10° 20:04:12 10° 327° (NNW) 2,783 7.4 -36.1°
Enters shadow 20:07:55 19° 2° (N) 2,223 6.5 -36.7°
